Showing default

OPS 5712 (P/L 160), 2826

Orbit data source: Space-Track

OPS 5712 (P/L 160), 2826 is a payload satellite owned by NRL (US) in LEO that was launched on Wed, 31 May 1967 UTC via a THOR SLV-2 AGENA D launch vehicle from the Air Force Western Test Range (AFWTR). Payload-class satellites include a variety of spacecraft equipped with specific instruments for various scientific and technological missions. These include communications satellites like Starlink; space stations such as the ISS; scientific satellites like the Hubble; Earth observation satellites from companies like Planet Labs, Umbra, and HawkEye 360; GPS; miniature CubeSats for education and research; and military/defense satellites.

Loading next visibility...
Identifier
2826, 1967-053A
Orbit
LEO
Country
Flag of USUS
Related business
Manufacturer
NRL
Mission
Operational spacecraft
Bus & Motor
NRL 14"?, Unknown motor
Mass
5 kg wet, 5 kg dry
Launch date (UTC)
1967-05-31 (59 years ago)
Launch vehicle
THOR SLV-2 AGENA D
Launch site
Air Force Western Test Range (AFWTR)
Object type
Payload
Rocket body
Debris
Shape & HBR
Unknown
Radar Cross Section
Medium (>0.1 m² and <1 m²)

Expand to show TLE details & history
Last TLE update: 20 hours ago

TLE from 20 hours ago
0 OPS 5712 (P/L 160)
1 02826U 67053A   26173.80211210  .00005198  00000-0  73341-3 0  9997
2 02826  69.9175  24.5328 0000838 291.9251  68.1808 14.77776682 67064
Epoch: 2026-06-22T19:15Z
TLE epoch observation values (Epoch: 2026-06-22T19:15:02.485Z)
Latitude
0.00001°
Longitude
-175.21036°
Altitude
638.528 km
Speed
7.539 km/s
True Right ascension
01h 38m 07s
True Declination
0° 00' 00"
Sunlit
Object was in daylight at epoch
Visualization orbit readout
Latitude
Unknown
Longitude
Unknown
Altitude
Unknown
Speed
Unknown
Apparent Right ascension
Unknown
Apparent Declination
Unknown
Sunlit
N/A
Visualization observer readout
Local Sidereal Time
02:24:42
Azimuth
Unknown
Elevation
Unknown
Doppler factor
Unknown
Orbital elements
Apogee altitude
634.914 km
Perigee altitude
633.739 km
Semi-major axis
7,012.464 km
Eccentricity
0.00008
Inclination
69.9175°
RAAN
24.5328°
Arg. of periapsis
291.9251°
True anomaly
68.18972°
Mean anomaly
68.1808°
Eccentric anomaly
68.18526°
Mean motion
3.69604 °/min
Orbital period
97.4 mins
BSTAR
0.00073341
Loading maneuver chart data...
Computing Atmospheric mass density...
Loading historical data...
Loading historical data...
Loading historical data...
Loading historical data...
Loading historical data...
Loading historical data...
Loading historical data...

Documentation

Showing up to 5 results
|